Location: St Andrew
(49.4460°N, 2.5750°W)
Time: 10:28:48
(UTC+00:00)

Daily predictions for brighter satellites

Satellite Brightness Start Highest point End
(mag) Time Altitude Azimuth Time Altitude Azimuth Time Altitude Azimuth
CSL-04 Debris 4.2 16:40:23 10° SSE 16:45:47 80° ENE 16:51:13 10° NNW
Cosmos 2218 Rocket 4.3 16:41:22 10° N 16:47:28 47° ENE 16:53:26 10° SSE
IDEFIX/ARIANE 42P 3.0 16:44:07 10° SE 16:48:55 40° ENE 16:53:45 10° N
Cosmos 158 Rocket 4.4 16:44:20 10° NNW 16:49:42 74° WSW 16:54:57 10° SSE
COSMOS 2487 3.8 16:47:57 10° N 16:50:42 20° NE 16:53:27 10° ESE
Cosmos 1455 Rocket 3.7 16:47:16 10° N 16:51:20 35° ENE 16:55:24 10° SE
Cosmos 1295 Rocket 4.4 16:45:49 10° N 16:51:58 72° E 16:58:02 10° SSE
Cosmos 1484 Rocket 4.3 16:50:52 10° E 16:53:03 15° ENE 16:55:14 10° NNE
Cosmos 1844 Rocket 3.0 16:48:10 10° S 16:53:32 50° ESE 16:58:59 10° NE
ERBS 3.9 16:51:58 10° WNW 16:54:45 23° N 16:57:32 10° NE
SJ-12 4.3 16:51:25 10° SE 16:55:16 41° ENE 16:59:10 10° N
Thor Agena Rocket 4.4 16:50:45 10° NE 16:55:20 30° E 16:59:56 10° SSE
Cosmos 2181 Rocket 4.1 16:49:05 10° S 16:55:22 65° E 17:01:46 10° NNE
Cosmos 1606 4.3 16:54:13 10° SW 16:57:51 36° WNW 17:01:30 10° N
CZ-3B DEB 3.1 16:55:27 10° S 16:58:58 32° ESE 17:06:36 10° ENE
EO 1 Del DPAF 3.5 16:56:54 10° N 17:00:47 73° WNW 17:04:39 10° SSW
Cosmos 2251 Rocket 3.5 16:56:54 10° NNW 17:02:18 76° ENE 17:07:37 10° SSE
AQUARIUS 4.4 16:59:31 10° SE 17:03:50 48° ENE 17:08:11 10° N
Timation 2 Rocket 4.5 16:59:02 10° NNW 17:05:31 45° NE 17:12:06 10° ESE
CORIOLIS 4.3 17:02:12 10° SE 17:07:25 52° ENE 17:12:38 10° N
Okean 3 3.8 17:06:29 10° SSW 17:10:45 69° WNW 17:15:00 10° N
CZ-2C R/B 3.7 17:10:11 10° NNE 17:14:40 89° ESE 17:19:09 10° SSW
Cosmos 1844 3.8 17:10:39 10° S 17:16:04 56° ESE 17:21:31 10° NE
USA 234 3.6 17:12:52 11° ENE 17:18:55 51° SE 17:25:14 10° SSW
Cosmos 1812 3.1 17:19:07 10° SSE 17:22:46 43° E 17:26:27 10° NNE
SL-08 R/B 4.5 17:17:12 10° N 17:23:39 77° E 17:29:56 10° SSE
SL-27 R/B 4.0 17:23:56 10° NW 17:27:26 42° WSW 17:30:53 10° S
NOSS 3-4 (A) 4.1 17:21:05 10° NW 17:27:36 45° NNE 17:34:30 10° ESE
NOSS 3-4 (C) 4.1 17:21:11 10° NW 17:27:42 44° NNE 17:34:35 10° ESE
Cosmos 2278 Rocket 2.5 17:26:08 10° S 17:31:30 47° ESE 17:36:12 14° NE
Okean 1 3.7 17:29:28 10° SSE 17:33:18 42° E 17:37:07 10° NNE
Cosmos 864 Rocket 4.5 17:30:16 10° N 17:36:36 85° E 17:42:55 10° S
NOSS 3-3 (A) 4.4 17:32:27 10° SSW 17:38:23 48° ESE 17:43:12 18° NE
NOSS 3-3 (C) 4.4 17:32:34 10° SSW 17:38:30 48° ESE 17:43:16 18° NE
Cosmos 1544 Rocket 4.1 17:35:38 10° NNW 17:40:04 64° W 17:44:29 10° S
OPS 8737 4.4 17:38:28 10° SSW 17:41:37 56° SE 17:43:02 28° ENE
USA 116 4.4 17:37:11 10° NNE 17:42:38 81° ESE 17:47:52 10° SSW
ATLAS 2AS CENTAUR R/B 3.9 17:34:58 10° NW 17:42:47 53° WSW 17:50:07 10° SSE
COSMO-SKYMED 1 3.4 17:41:42 20° NE 17:43:48 30° E 17:47:39 10° SSE
Nadezhda 3 Rocket 4.4 17:38:24 10° SSE 17:44:08 41° E 17:49:58 10° NNE
SL-24 DEB 4.4 17:39:29 10° NNE 17:44:10 52° E 17:48:45 10° SSE
Cosmos 1346 Rocket 3.3 17:41:10 10° SSE 17:44:44 36° E 17:46:28 23° NE
SMAP 3.4 17:41:17 10° S 17:45:55 70° WSW 17:50:35 10° NNW
Abrixas 3.3 17:43:48 10° W 17:46:39 45° SSW 17:48:26 19° SE
Cosmos 1975 Rocket 4.3 17:44:40 10° SW 17:48:46 41° WNW 17:52:54 10° N
Meteor 2-21 Rocket 4.5 17:43:46 10° N 17:49:53 56° ENE 17:55:56 10° SSE
Cosmos 1833 Rocket 2.7 17:44:49 10° NNW 17:50:25 58° ENE 17:55:57 10° SE
Cosmos 407 Rocket 4.4 17:47:02 10° N 17:51:17 25° NE 17:51:56 24° ENE
Cosmos 2082 Rocket 2.1 17:47:01 10° NNW 17:52:42 68° ENE 17:58:21 10° SE
ISS -3.4 17:52:50 10° WSW 17:56:09 78° NNW 17:57:06 43° ENE
SL-8 R/B 4.3 17:51:46 10° SW 17:56:18 45° SSE 17:58:31 27° E
MSX 3.9 17:51:18 10° SSE 17:57:03 86° WSW 18:02:51 10° NNW
ATLAS CENTAUR R/B 3.8 17:58:59 10° NNW 18:00:22 11° N 18:01:43 10° NNE
Genesis I 4.4 18:00:50 10° NW 18:04:36 44° WSW 18:08:19 10° SSE
Cosmos 1536 Rocket 3.6 18:00:49 10° SSW 18:05:17 82° W 18:09:49 10° N
EP 2 4.2 18:03:58 10° SW 18:06:36 87° SE 18:06:43 80° ENE
Cosmos 1238 Rocket 3.3 18:04:52 10° SSW 18:07:44 43° WNW 18:10:39 11° N
GEOS 3 Rocket 3.5 18:03:02 10° SE 18:08:04 76° NE 18:13:13 10° NW
Cosmos 1025 Rocket 4.4 18:06:26 10° SSE 18:08:34 23° SE 18:08:34 23° SE
Cosmos 921 Rocket 3.4 18:08:57 10° S 18:12:56 40° ESE 18:12:56 40° ESE
YAOGAN 1 4.0 18:09:31 10° SSW 18:13:34 39° W 18:17:40 10° NNW
Cosmos 2263 Rocket 4.3 18:10:10 10° WNW 18:13:58 18° NW 18:17:48 10° N
Meteor 1-13 Rocket 4.3 18:09:26 10° S 18:15:01 60° E 18:20:14 13° NNE
Cosmos 1975 3.9 18:12:04 10° NNW 18:16:00 47° W 18:19:54 10° SSW
CZ-2C R/B 3.9 18:11:36 10° SSW 18:16:19 40° W 18:21:11 10° NNW
ALOS 4.4 18:21:27 12° N 18:21:27 12° N 18:21:58 10° N
CZ-4 R/B 3.9 18:15:05 10° SSW 18:18:31 25° W 18:21:57 10° NW
Cosmos 1743 2.5 18:14:38 10° N 18:18:33 77° E 18:22:24 10° SSE
Intercosmos 25 2.7 18:16:45 10° N 18:20:09 90° SSE 18:23:20 10° S
Cosmos 1500 4.3 18:20:00 10° NNW 18:23:40 46° W 18:27:21 10° SSW
COSMOS 2487 4.1 18:23:02 10° NW 18:26:23 37° WSW 18:29:42 10° S
Cosmos 1484 Rocket 3.3 18:23:28 10° S 18:27:08 55° W 18:30:49 10° NNW
IDEFIX/ARIANE 42P 4.3 18:23:57 10° SSW 18:28:36 33° W 18:33:17 10° NNW
Meteor 2-9 Rocket 4.0 18:24:33 10° N 18:30:00 61° ENE 18:35:18 10° SSE
Cosmos 1934 Rocket 3.9 18:25:20 10° N 18:31:30 64° ENE 18:37:42 10° SSE
SKYMED 2 3.4 18:30:20 36° NNE 18:32:05 88° E 18:36:26 10° SSW
ERBS 4.0 18:29:09 10° NW 18:31:05 24° NNW 18:31:05 24° NNW
Meteor 2-4 Rocket 3.7 18:27:21 10° SSE 18:32:26 48° E 18:32:26 48° E
Cosmos 1535 Rocket 4.4 18:28:21 10° N 18:34:44 82° E 18:40:58 10° S
Cosmos 1844 Rocket 4.1 18:32:35 10° WSW 18:37:40 34° NW 18:41:49 15° N
Cosmos 1190 Rocket 3.9 18:34:57 10° NNW 18:40:13 63° ENE 18:40:44 59° E
BREEZE-M DEB (TANK) 3.3 18:36:11 10° W 18:42:13 84° W 18:42:13 84° W
Tiangong 1 3.8 18:44:08 10° SSW 18:44:49 13° SSW 18:44:49 13° SSW
Okean 1-7 Rocket 3.6 18:42:00 10° SSW 18:46:30 81° W 18:47:25 56° N
Resurs 01 Rocket 3.9 18:50:44 13° N 18:50:44 13° N 18:51:18 10° N
Meteor 2-8 Rocket 4.3 18:47:45 10° S 18:53:44 62° E 18:54:05 61° ENE
Timation 1 Rocket 4.2 18:47:48 10° SSW 18:53:45 78° ESE 18:54:49 61° NE
BREEZE M DEB (TANK) 3.7 18:53:41 10° W 18:57:25 63° SSW 19:00:50 34° SE
BREEZE-M R/B 3.5 18:49:21 10° WSW 18:58:00 72° SSE 18:58:19 70° SE
Cosmos 1821 Rocket 4.2 18:54:05 10° NNW 19:00:09 69° W 19:06:11 10° S
USA 234 3.3 19:00:13 48° NE 19:02:07 70° NNW 19:08:37 10° WSW
Cosmos 2297 3.7 18:57:38 10° SSW 19:03:17 76° WNW 19:04:26 56° N
Cosmos 1605 Rocket 3.8 19:04:20 10° N 19:10:43 86° E 19:16:57 10° S
Cosmos 2278 Rocket 3.5 19:10:33 10° WSW 19:15:45 36° NW 19:18:04 26° N
NOSS 3-4 (A) 4.1 19:12:03 10° NW 19:18:54 64° SW 19:22:29 31° SSE
NOSS 3-4 (C) 4.1 19:12:09 10° NW 19:19:01 64° SW 19:22:29 32° SSE
COSMO-SKYMED 1 4.2 19:18:55 29° NW 19:19:59 33° WNW 19:23:51 10° SW
CZ-3B DEB 3.3 19:26:58 10° W 19:32:36 70° NNW 19:35:05 54° NE
ISS 0.2 19:29:34 10° WNW 19:29:46 11° WNW 19:29:46 11° WNW
Cosmos 407 Rocket 4.4 19:28:37 10° NNW 19:32:13 42° NW 19:32:13 42° NW
Cosmos 2082 Rocket 4.4 19:31:58 10° NW 19:36:16 23° WSW 19:40:35 10° SSW
FALCON 9 R/B 4.4 19:54:30 10° WSW 20:05:33 26° SSW 20:06:18 26° SSW
CZ-3A R/B 4.3 20:11:20 10° WNW 20:16:13 36° NW 20:16:13 36° NW
